Hourly Data Report for June 09, 2021

OTTAWA INTL A
ONTARIO
Current Station Operator: NAVCAN

45°19'00.000" N
75°40'00.000" W
114.90 m
6106001
71628
YOW

Download Data

Hourly Data (June 2021)
Hourly Data Report for June 9, 2021
TIME
LST
Temp Definition
°C
Dew Point Definition
°C
Rel Hum Definition
%
Precip. Amount Definition
mm

Wind Dir Definition
10's deg

Wind Spd Definition
km/h
Visibility Definition
km
Stn Press Definition
kPa
Hmdx Definition


Wind Chill Definition


Weather Definition


00:00 22.6 21.3 92   21 12 24.1 100.07 31   LegendNANA
01:00 22.1 21.1 94   23 12 24.1 100.07 31   Mostly Cloudy
02:00 22.4 21.3 94   28 7 24.1 100.09 31   LegendNANA
03:00 23.1 17.7 71   1 19 24.1 100.09 29   LegendNANA
04:00 22.2 13.5 57   1 18 24.1 100.14 25   Mostly Cloudy
05:00 22.1 10.8 48   1 24 24.1 100.25     LegendNANA
06:00 22.4 10.6 47   2 24 24.1 100.36     LegendNANA
07:00 23.1 9.8 42   3 33 24.1 100.42     Mainly Clear
08:00 24.2 9.0 37   2 28 24.1 100.48 25   LegendNANA
09:00 25.5 8.7 34   1 18 24.1 100.50 26   LegendNANA
10:00 26.9 9.9 34   3 16 24.1 100.56 28   Mainly Clear
11:00 27.6 10.2 33   34 19 24.1 100.59 29   LegendNANA
12:00 27.7 10.3 33   36 16 24.1 100.54 29   LegendNANA
13:00 27.9 8.9 30   33 26 24.1 100.54 29   Mostly Cloudy
14:00 28.6 7.9 27   34 21 24.1 100.52 29   LegendNANA
15:00 28.8 5.8 23   36 21 24.1 100.48 28   LegendNANA
16:00 28.4 6.0 24   34 23 24.1 100.44 28   Mainly Clear
17:00 27.6 5.8 24   36 23 24.1 100.41 27   LegendNANA
18:00 26.4 5.1 25   35 18 24.1 100.44 26   LegendNANA
19:00 25.0 6.2 30   35 22 24.1 100.50 25   Mostly Cloudy
20:00 23.1 6.1 33   35 17 24.1 100.50     LegendNANA
21:00 21.7 5.9 35   36 16 24.1 100.56     LegendNANA
22:00 20.8 5.9 37   35 15 24.1 100.62     Clear
23:00 19.9 6.2 41   36 16 24.1 100.62     LegendNANA

Notes on Data Quality.

Legend

  • E = Estimated
  • M = Missing
  • NA = Not Available*
  • [empty] = Indicates an unobserved value
Date modified: